TimeCST,TemperatureF,Dew PointF,Humidity,Sea Level PressureIn,VisibilityMPH,Wind Direction,Wind SpeedMPH,Gust SpeedMPH,PrecipitationIn,Events,Conditions,WindDirDegrees,DateUTC
12:12 AM,48.4,40.1,73,29.62,10.0,WSW,10.4,-,N/A,,Overcast,250,2013-11-09 06:12:00
12:32 AM,48.2,40.3,74,29.63,10.0,West,10.4,18.4,N/A,,Overcast,260,2013-11-09 06:32:00
12:52 AM,48.0,40.1,74,29.64,10.0,West,12.7,18.4,N/A,,Overcast,270,2013-11-09 06:52:00
1:12 AM,47.5,39.7,75,29.65,10.0,West,11.5,18.4,N/A,,Overcast,270,2013-11-09 07:12:00
1:32 AM,47.3,39.6,74,29.65,10.0,West,11.5,16.1,N/A,,Overcast,270,2013-11-09 07:32:00
1:52 AM,46.6,39.2,75,29.66,10.0,West,13.8,19.6,N/A,,Overcast,270,2013-11-09 07:52:00
2:12 AM,46.4,38.7,74,29.67,10.0,West,16.1,21.9,N/A,,Overcast,270,2013-11-09 08:12:00
2:32 AM,45.9,38.7,76,29.67,10.0,West,13.8,-,N/A,,Overcast,260,2013-11-09 08:32:00
2:52 AM,45.5,38.3,76,29.68,10.0,West,9.2,18.4,N/A,,Overcast,270,2013-11-09 08:52:00
3:12 AM,45.3,37.6,74,29.68,10.0,West,10.4,19.6,N/A,,Overcast,280,2013-11-09 09:12:00
3:32 AM,45.1,37.0,73,29.69,10.0,West,12.7,18.4,N/A,,Overcast,270,2013-11-09 09:32:00
3:52 AM,45.0,36.7,73,29.70,10.0,West,10.4,18.4,N/A,,Overcast,260,2013-11-09 09:52:00
4:12 AM,44.6,36.5,73,29.70,10.0,West,12.7,-,N/A,,Overcast,280,2013-11-09 10:12:00
4:32 AM,44.6,36.5,73,29.71,10.0,West,9.2,-,N/A,,Overcast,270,2013-11-09 10:32:00
4:52 AM,44.8,36.5,73,29.71,10.0,West,6.9,-,N/A,,Overcast,270,2013-11-09 10:52:00
5:12 AM,45.0,36.3,72,29.72,10.0,WNW,13.8,18.4,N/A,,Overcast,290,2013-11-09 11:12:00
5:32 AM,45.5,36.5,71,29.72,10.0,West,12.7,17.3,N/A,,Overcast,280,2013-11-09 11:32:00
5:52 AM,45.9,36.5,70,29.73,10.0,West,10.4,16.1,N/A,,Overcast,280,2013-11-09 11:52:00
6:12 AM,46.4,36.5,68,29.74,10.0,WNW,11.5,21.9,N/A,,Overcast,290,2013-11-09 12:12:00
6:32 AM,46.4,36.7,69,29.75,10.0,West,15.0,20.7,N/A,,Overcast,280,2013-11-09 12:32:00
6:52 AM,46.6,37.4,70,29.76,10.0,WNW,11.5,16.1,N/A,,Overcast,290,2013-11-09 12:52:00
7:12 AM,46.8,37.6,70,29.77,10.0,WNW,16.1,20.7,N/A,,Overcast,290,2013-11-09 13:12:00
7:32 AM,47.3,37.2,68,29.78,10.0,WNW,18.4,27.6,N/A,,Overcast,290,2013-11-09 13:32:00
7:52 AM,47.3,36.5,66,29.79,10.0,WNW,13.8,27.6,N/A,,Overcast,290,2013-11-09 13:52:00
8:12 AM,46.9,35.6,65,29.80,10.0,WNW,18.4,24.2,N/A,,Overcast,300,2013-11-09 14:12:00
8:32 AM,47.1,35.1,63,29.81,10.0,WNW,18.4,31.1,N/A,,Overcast,290,2013-11-09 14:32:00
8:52 AM,46.6,35.4,65,29.82,10.0,WNW,15.0,31.1,N/A,,Overcast,300,2013-11-09 14:52:00
9:12 AM,46.4,35.8,67,29.83,10.0,WNW,16.1,29.9,N/A,,Overcast,290,2013-11-09 15:12:00
9:32 AM,46.6,36.0,67,29.84,10.0,WNW,17.3,23.0,N/A,,Overcast,290,2013-11-09 15:32:00
9:52 AM,46.4,35.8,67,29.85,10.0,WNW,12.7,24.2,N/A,,Overcast,300,2013-11-09 15:52:00
10:12 AM,46.4,35.8,67,29.87,10.0,WNW,16.1,26.5,N/A,,Overcast,290,2013-11-09 16:12:00
10:32 AM,46.8,33.6,60,29.87,10.0,WNW,19.6,31.1,N/A,,Overcast,300,2013-11-09 16:32:00
10:52 AM,46.6,33.4,60,29.89,10.0,WNW,18.4,24.2,N/A,,Overcast,300,2013-11-09 16:52:00
11:12 AM,45.9,35.6,67,29.90,10.0,West,18.4,27.6,N/A,,Overcast,280,2013-11-09 17:12:00
11:32 AM,46.4,35.2,65,29.90,10.0,West,15.0,21.9,N/A,,Overcast,270,2013-11-09 17:32:00
11:52 AM,46.6,34.0,62,29.91,10.0,West,21.9,31.1,N/A,,Overcast,270,2013-11-09 17:52:00
12:12 PM,46.0,33.3,61,29.91,10.0,WNW,16.1,29.9,N/A,,Overcast,290,2013-11-09 18:12:00
12:32 PM,46.4,31.1,55,29.92,10.0,WNW,23.0,28.8,N/A,,Overcast,290,2013-11-09 18:32:00
12:52 PM,45.9,31.1,56,29.93,10.0,WNW,15.0,27.6,N/A,,Overcast,290,2013-11-09 18:52:00
1:12 PM,45.0,30.4,57,29.93,10.0,WNW,15.0,27.6,N/A,,Overcast,290,2013-11-09 19:12:00
1:32 PM,44.2,28.9,55,29.94,10.0,WNW,18.4,28.8,N/A,,Overcast,300,2013-11-09 19:32:00
1:52 PM,43.9,28.4,55,29.95,10.0,WNW,18.4,28.8,N/A,,Overcast,300,2013-11-09 19:52:00
2:12 PM,44.1,27.3,52,29.96,10.0,WNW,24.2,31.1,N/A,,Overcast,290,2013-11-09 20:12:00
2:32 PM,43.7,28.2,54,29.97,10.0,WNW,13.8,27.6,N/A,,Overcast,300,2013-11-09 20:32:00
2:52 PM,43.7,28.6,55,29.97,10.0,WNW,13.8,26.5,N/A,,Overcast,290,2013-11-09 20:52:00
3:12 PM,43.7,29.3,57,29.98,10.0,WNW,11.5,18.4,N/A,,Overcast,290,2013-11-09 21:12:00
3:32 PM,43.3,28.9,57,29.99,10.0,WNW,23.0,28.8,N/A,,Overcast,290,2013-11-09 21:32:00
3:52 PM,43.3,26.2,51,30.00,10.0,WNW,12.7,27.6,N/A,,Overcast,300,2013-11-09 21:52:00
4:12 PM,43.3,25.7,50,30.01,10.0,WNW,10.4,25.3,N/A,,Overcast,290,2013-11-09 22:12:00
4:32 PM,43.2,25.7,50,30.02,10.0,West,13.8,26.5,N/A,,Overcast,280,2013-11-09 22:32:00
4:52 PM,43.2,26.4,52,30.02,10.0,WNW,17.3,25.3,N/A,,Overcast,290,2013-11-09 22:52:00
5:12 PM,43.2,26.8,52,30.03,10.0,WNW,20.7,26.5,N/A,,Overcast,290,2013-11-09 23:12:00
5:32 PM,43.5,26.6,51,30.04,10.0,WNW,15.0,27.6,N/A,,Overcast,290,2013-11-09 23:32:00
5:52 PM,43.2,27.0,53,30.05,10.0,WNW,16.1,26.5,N/A,,Overcast,290,2013-11-09 23:52:00
6:12 PM,42.3,25.5,52,30.07,10.0,WNW,16.1,28.8,N/A,,Overcast,290,2013-11-10 00:12:00
6:32 PM,41.7,25.3,52,30.08,10.0,WNW,16.1,25.3,N/A,,Overcast,300,2013-11-10 00:32:00
6:52 PM,41.5,25.7,53,30.08,10.0,WNW,17.3,23.0,N/A,,Overcast,300,2013-11-10 00:52:00
7:12 PM,41.4,26.2,55,30.09,10.0,WNW,16.1,23.0,N/A,,Overcast,300,2013-11-10 01:12:00
7:32 PM,41.0,26.4,56,30.10,10.0,WNW,18.4,32.2,N/A,,Mostly Cloudy,300,2013-11-10 01:32:00
7:52 PM,40.5,26.4,57,30.10,10.0,WNW,16.1,25.3,N/A,,Scattered Clouds,300,2013-11-10 01:52:00
8:12 PM,40.5,26.4,57,30.11,10.0,WNW,16.1,24.2,N/A,,Mostly Cloudy,290,2013-11-10 02:12:00
8:32 PM,40.5,26.6,58,30.12,10.0,WNW,11.5,23.0,N/A,,Mostly Cloudy,290,2013-11-10 02:32:00
8:52 PM,40.6,27.5,59,30.13,10.0,WNW,16.1,28.8,N/A,,Overcast,290,2013-11-10 02:52:00
9:12 PM,40.1,27.5,61,30.14,10.0,WNW,17.3,26.5,N/A,,Mostly Cloudy,290,2013-11-10 03:12:00
9:32 PM,39.7,27.9,63,30.15,10.0,WNW,13.8,24.2,N/A,,Mostly Cloudy,290,2013-11-10 03:32:00
9:52 PM,39.7,28.2,63,30.15,10.0,WNW,12.7,18.4,N/A,,Overcast,290,2013-11-10 03:52:00
10:12 PM,39.7,28.4,64,30.16,10.0,WNW,11.5,19.6,N/A,,Overcast,290,2013-11-10 04:12:00
10:32 PM,39.7,28.4,64,30.16,10.0,WNW,11.5,-,N/A,,Overcast,290,2013-11-10 04:32:00
10:52 PM,39.4,28.8,66,30.17,10.0,WNW,11.5,18.4,N/A,,Overcast,300,2013-11-10 04:52:00
11:12 PM,39.7,28.8,65,30.17,10.0,WNW,13.8,18.4,N/A,,Overcast,290,2013-11-10 05:12:00
11:32 PM,40.1,28.9,64,30.18,10.0,WNW,12.7,20.7,N/A,,Overcast,300,2013-11-10 05:32:00
11:52 PM,40.5,28.9,64,30.19,10.0,WNW,13.8,20.7,N/A,,Overcast,290,2013-11-10 05:52:00